• In Hungary
  • List of Countries
  • For 7 days
  • Water Temperature
  • Satellite Maps
  • Weather Map
  • News
  • Weather Widgets
  • user-avatar
    Login

    Hourly Weather Horodysche

    Today, 21 October, Saturday

    Time Temperature Precipitation Wind Pressure Humidity
    00:00 +11°C° 0 mm 1 mps 741 mmHg 84%
    01:00 +11°C° 0 mm 1 mps 741 mmHg 84%
    02:00 +10°C° 0 mm 1 mps 740 mmHg 86%
    03:00 +10°C° 0 mm 1 mps 740 mmHg 86%
    04:00 +10°C° 0 mm 1 mps 740 mmHg 86%
    05:00 +9°C° 0 mm 1 mps 740 mmHg 86%
    06:00 +10°C° 0 mm 1 mps 740 mmHg 84%
    07:00 +10°C° 0 mm 1 mps 740 mmHg 82%
    08:00 +11°C° 0 mm 1 mps 739 mmHg 77%
    09:00 +13°C° 0 mm 1 mps 739 mmHg 71%
    10:00 +14°C° 0 mm 2 mps 739 mmHg 64%
    11:00 +16°C° 0 mm 2 mps 739 mmHg 58%
    12:00 +16°C° 0 mm 2 mps 739 mmHg 57%
    13:00 +17°C° 0 mm 3 mps 738 mmHg 56%
    14:00 +17°C° 0 mm 3 mps 738 mmHg 56%
    15:00 +16°C° 0.2 mm 3 mps 738 mmHg 62%
    16:00 +14°C° 0.2 mm 3 mps 738 mmHg 68%
    17:00 +13°C° 0.2 mm 3 mps 738 mmHg 74%
    18:00 +12°C° 0 mm 3 mps 738 mmHg 77%
    19:00 +11°C° 0 mm 3 mps 738 mmHg 79%
    20:00 +10°C° 0 mm 3 mps 738 mmHg 82%
    21:00 +10°C° 0.1 mm 3 mps 738 mmHg 84%
    22:00 +10°C° 0.1 mm 3 mps 738 mmHg 87%
    23:00 +9°C° 0.1 mm 3 mps 739 mmHg 89%

    Tomorrow, 22 October, Sunday

    Time Temperature Precipitation Wind Pressure Humidity
    00:00 +9°C° 0 mm 3 mps 739 mmHg 91%
    01:00 +8°C° 0 mm 2 mps 739 mmHg 93%
    02:00 +8°C° 0 mm 2 mps 739 mmHg 95%
    03:00 +8°C° 0 mm 2 mps 739 mmHg 94%
    04:00 +8°C° 0 mm 2 mps 739 mmHg 93%
    05:00 +9°C° 0 mm 2 mps 739 mmHg 92%
    06:00 +9°C° 0 mm 2 mps 740 mmHg 92%
    07:00 +10°C° 0 mm 1 mps 740 mmHg 92%
    08:00 +10°C° 0 mm 1 mps 740 mmHg 91%
    09:00 +9°C° 0 mm 2 mps 740 mmHg 88%
    10:00 +10°C° 0 mm 2 mps 740 mmHg 85%
    11:00 +10°C° 0 mm 2 mps 740 mmHg 81%
    12:00 +11°C° 0 mm 3 mps 740 mmHg 78%
    13:00 +11°C° 0 mm 3 mps 740 mmHg 76%
    14:00 +12°C° 0 mm 3 mps 739 mmHg 73%
    15:00 +11°C° 0 mm 3 mps 739 mmHg 75%
    16:00 +11°C° 0 mm 3 mps 739 mmHg 77%
    17:00 +10°C° 0 mm 3 mps 739 mmHg 79%
    18:00 +10°C° 0 mm 4 mps 739 mmHg 81%
    19:00 +8°C° 0 mm 4 mps 738 mmHg 82%
    20:00 +7°C° 0 mm 4 mps 738 mmHg 84%
    21:00 +7°C° 0 mm 4 mps 738 mmHg 83%
    22:00 +7°C° 0 mm 4 mps 738 mmHg 83%
    23:00 +7°C° 0 mm 4 mps 738 mmHg 82%

    Day after tomorrow, 23 October, Monday

    Time Temperature Precipitation Wind Pressure Humidity
    00:00 +7°C° 0 mm 4 mps 738 mmHg 82%
    01:00 +7°C° 0 mm 4 mps 738 mmHg 83%
    02:00 +6°C° 0 mm 4 mps 738 mmHg 83%
    03:00 +6°C° 0.1 mm 4 mps 737 mmHg 84%
    04:00 +6°C° 0.1 mm 4 mps 737 mmHg 85%
    05:00 +6°C° 0.1 mm 4 mps 736 mmHg 86%
    06:00 +6°C° 0.3 mm 4 mps 736 mmHg 87%
    07:00 +6°C° 0.3 mm 4 mps 736 mmHg 87%
    08:00 +6°C° 0.3 mm 4 mps 736 mmHg 88%
    09:00 +6°C° 0.2 mm 4 mps 736 mmHg 86%
    10:00 +6°C° 0.2 mm 4 mps 736 mmHg 84%
    11:00 +7°C° 0.2 mm 4 mps 736 mmHg 83%
    12:00 +7°C° 0.2 mm 4 mps 736 mmHg 82%
    13:00 +7°C° 0.2 mm 4 mps 736 mmHg 82%
    14:00 +8°C° 0.2 mm 4 mps 736 mmHg 81%
    15:00 +7°C° 0.3 mm 4 mps 736 mmHg 83%
    16:00 +7°C° 0.3 mm 4 mps 736 mmHg 84%
    17:00 +7°C° 0.3 mm 4 mps 736 mmHg 86%
    18:00 +7°C° 0.5 mm 4 mps 736 mmHg 86%
    19:00 +7°C° 0.5 mm 5 mps 736 mmHg 87%
    20:00 +7°C° 0.5 mm 5 mps 737 mmHg 87%
    21:00 +6°C° 0.7 mm 5 mps 737 mmHg 86%
    22:00 +6°C° 0.7 mm 5 mps 737 mmHg 86%
    23:00 +6°C° 0.7 mm 5 mps 738 mmHg 85%

    24 October, Tuesday

    Time Temperature Precipitation Wind Pressure Humidity
    00:00 +5°C° 0.8 mm 5 mps 738 mmHg 86%
    01:00 +5°C° 0.8 mm 5 mps 738 mmHg 86%
    02:00 +5°C° 0.8 mm 5 mps 738 mmHg 86%
    03:00 +5°C° 0.4 mm 5 mps 739 mmHg 86%
    04:00 +3°C° 0.4 mm 5 mps 739 mmHg 86%
    05:00 +3°C° 0.4 mm 5 mps 739 mmHg 86%
    06:00 +3°C° 0.3 mm 5 mps 740 mmHg 86%
    07:00 +3°C° 0.3 mm 5 mps 740 mmHg 87%
    08:00 +3°C° 0.3 mm 5 mps 741 mmHg 87%
    09:00 +3°C° 0.4 mm 5 mps 741 mmHg 86%
    10:00 +3°C° 0.4 mm 5 mps 742 mmHg 85%
    11:00 +3°C° 0.4 mm 5 mps 743 mmHg 85%
    12:00 +3°C° 0.2 mm 5 mps 743 mmHg 83%
    13:00 +4°C° 0.2 mm 4 mps 743 mmHg 82%
    14:00 +4°C° 0.2 mm 4 mps 744 mmHg 81%
    15:00 +4°C° 0.2 mm 4 mps 744 mmHg 81%
    16:00 +4°C° 0.2 mm 3 mps 744 mmHg 81%
    17:00 +3°C° 0.2 mm 3 mps 745 mmHg 82%
    18:00 +3°C° 0.1 mm 3 mps 745 mmHg 82%
    19:00 +3°C° 0.1 mm 3 mps 746 mmHg 82%
    20:00 +3°C° 0.1 mm 3 mps 746 mmHg 82%
    21:00 +3°C° 0 mm 3 mps 746 mmHg 82%
    22:00 +3°C° 0 mm 3 mps 747 mmHg 82%
    23:00 +3°C° 0 mm 3 mps 747 mmHg 82%

    25 October, Wednesday

    Time Temperature Precipitation Wind Pressure Humidity
    00:00 +2°C° 0 mm 3 mps 747 mmHg 82%
    01:00 +3°C° 0 mm 2 mps 747 mmHg 83%
    02:00 +3°C° 0 mm 2 mps 747 mmHg 83%
    03:00 +2°C° 0 mm 2 mps 748 mmHg 84%
    04:00 +2°C° 0 mm 2 mps 748 mmHg 85%
    05:00 +1°C° 0 mm 2 mps 748 mmHg 87%
    06:00 +2°C° 0 mm 2 mps 748 mmHg 86%
    07:00 +2°C° 0 mm 2 mps 749 mmHg 85%
    08:00 +2°C° 0 mm 2 mps 749 mmHg 84%
    09:00 +3°C° 0 mm 2 mps 749 mmHg 77%
    10:00 +5°C° 0 mm 2 mps 749 mmHg 70%
    11:00 +5°C° 0 mm 3 mps 749 mmHg 63%
    12:00 +7°C° 0 mm 3 mps 749 mmHg 61%
    13:00 +8°C° 0 mm 3 mps 749 mmHg 59%
    14:00 +9°C° 0 mm 3 mps 748 mmHg 57%
    15:00 +8°C° 0 mm 3 mps 748 mmHg 61%
    16:00 +7°C° 0 mm 2 mps 748 mmHg 65%
    17:00 +6°C° 0 mm 2 mps 748 mmHg 69%
    18:00 +5°C° 0 mm 2 mps 748 mmHg 71%
    19:00 +4°C° 0 mm 2 mps 748 mmHg 72%
    20:00 +4°C° 0 mm 2 mps 748 mmHg 73%
    21:00 +3°C° 0 mm 3 mps 748 mmHg 73%
    22:00 +3°C° 0 mm 3 mps 748 mmHg 73%
    23:00 +3°C° 0 mm 3 mps 748 mmHg 73%

    26 October, Thursday

    Time Temperature Precipitation Wind Pressure Humidity
    00:00 +3°C° 0 mm 3 mps 748 mmHg 74%
    01:00 +3°C° 0 mm 3 mps 748 mmHg 74%
    02:00 +3°C° 0 mm 3 mps 747 mmHg 75%
    03:00 +4°C° 0 mm 2 mps 747 mmHg 75%
    04:00 +5°C° 0 mm 2 mps 747 mmHg 74%
    05:00 +6°C° 0 mm 2 mps 747 mmHg 73%
    06:00 +5°C° 0 mm 3 mps 746 mmHg 72%
    07:00 +7°C° 0 mm 3 mps 746 mmHg 71%
    08:00 +8°C° 0 mm 3 mps 746 mmHg 70%
    09:00 +8°C° 0 mm 4 mps 746 mmHg 68%
    10:00 +10°C° 0 mm 4 mps 746 mmHg 66%
    11:00 +11°C° 0 mm 4 mps 746 mmHg 64%
    12:00 +12°C° 0 mm 5 mps 746 mmHg 63%
    13:00 +13°C° 0 mm 5 mps 745 mmHg 62%
    14:00 +13°C° 0 mm 6 mps 745 mmHg 61%
    15:00 +13°C° 0 mm 5 mps 745 mmHg 64%
    16:00 +12°C° 0 mm 5 mps 744 mmHg 66%
    17:00 +11°C° 0 mm 4 mps 744 mmHg 68%
    18:00 +11°C° 0 mm 4 mps 744 mmHg 70%
    19:00 +10°C° 0 mm 4 mps 744 mmHg 71%
    20:00 +9°C° 0 mm 5 mps 744 mmHg 72%
    21:00 +8°C° 0 mm 5 mps 744 mmHg 73%
    22:00 +8°C° 0 mm 4 mps 744 mmHg 74%
    23:00 +8°C° 0 mm 4 mps 743 mmHg 75%
    Show more